Regional Weather Roundup
Issued by NWS Charleston, SC

Current Version | Previous Version | Graphics & Text | Print | Product List | Glossary On
Versions: 1 2 3 4 5 6 7 8 9 10 11 12 13 14 15 16 17 18 19 20 21 22 23 24 25 26 27 28 29 30 31 32 33 34 35 36 37 38 39 40 41 42 43 44 45 46 47 48 49 50
000 ASUS42 KCHS 201112 RWRCHS REGIONAL WEATHER ROUNDUP NATIONAL WEATHER SERVICE CHARLESTON SC 600 AM EST MON NOV 20 2017 NOTE: "FAIR" INDICATES FEW OR NO CLOUDS BELOW 12,000 FEET WITH NO SIGNIFICANT WEATHER AND/OR OBSTRUCTIONS TO VISIBILITY. NOT ALL STATIONS ARE QUALITY CONTROLLED. USE DATA WITH CAUTION... ESPECIALLY DEWPOINT OBSERVATIONS. SCZ027-030-031-034>040-042>050-201200- ...SOUTHEAST SOUTH CAROLINA... CITY SKY/WX TMP DP RH WIND PRES REMARKS N CHARLESTON CLEAR 38 32 79 CALM 30.20R WATERFRONT PRK NOT AVBL JOHNS ISLAND FAIR 43 32 65 N6 30.20R PINOPOLIS N/A 45 36 70 E7 30.13R MONCKS CORNER FAIR 34 30 86 CALM 30.21R SUMMERVILLE FAIR 32 32 100 CALM 30.22R BEAUFORT MCAS NOT AVBL BEAUFORT ARPT FAIR 43 36 75 NE9 30.19R HILTON HEAD IS NOT AVBL WALTERBORO MOSUNNY 30 30 100 CALM 30.21R ALLENDALE FAIR 32 30 93 CALM 30.20R ...SOUTHERN MIDLANDS AND PEE DEE... CITY SKY/WX TMP DP RH WIND PRES REMARKS GEORGETOWN FAIR 32 30 93 CALM 30.22R KINGSTREE FAIR 28 28 100 CALM 30.21R ORANGEBURG CLEAR 32 30 92 CALM 30.21R BARNWELL N/A 30 28 93 CALM 30.21R AIKEN FAIR 28 27 93 CALM 30.24R MANNING FAIR 30 30 100 MISG 30.21R COLUMBIA CLEAR 31 29 92 W3 30.21R SUMTER CLEAR 31 26 82 CALM 30.18R FLORENCE CLEAR 30 28 92 CALM 30.22R MYRTLE BEACH CLEAR 35 31 85 NW3 30.21R N MYRTLE BEACH CLEAR 32 30 92 CALM 30.19R $$ GAZ063-065-086>088-099>101-113>116-118-119-134>141-150-201200- ...SOUTHEAST GEORGIA... CITY SKY/WX TMP DP RH WIND PRES REMARKS SAVANNAH ARPT CLEAR 36 34 92 N3 30.20R HUNTER AAF CLEAR 41 34 77 N3 30.16R FORT STEWART PTCLDY 35 31 87 NW3 30.16R STATESBORO CLEAR 34 31 88 CALM 30.20R SYLVANIA SUNNY 33 33 99 CALM 30.21R CLAXTON FAIR 32 32 99 CALM 30.20R ...CSRA...CENTRAL AND FAR SOUTHEAST GEORGIA... CITY SKY/WX TMP DP RH WIND PRES REMARKS THOMSON CLEAR 28 27 94 CALM 30.26R AUGUSTA-BUSH CLEAR 28 27 96 CALM 30.21R AUGUSTA-DANIEL CLEAR 38 31 76 N7 30.21R WCI 33 SWAINSBORO FAIR 32 32 100 CALM 30.21R VIDALIA CLEAR 37 34 87 N7 30.19R WCI 32 EASTMAN FAIR 30 25 81 CALM 30.22R HAZLEHURST FAIR 37 31 78 CALM 30.18R ALMA CLEAR 34 31 88 N3 30.18R WAYCROSS CLEAR 35 33 90 CALM 30.17S JESUP FAIR 41 34 75 CALM 30.17R BAXLEY FAIR 34 34 100 CALM 30.18R BRUNSWICK CLEAR 41 34 75 CALM 30.17R SAINT SIMONS CLEAR 42 37 82 N6 30.16R $$ SCZ027-028-034-036>038-045-046-048>050-GAZ119-141-201200- ...LAKE AND SUPPLEMENTAL COASTAL OBSERVATIONS... STATION/POSITION TIME TEMP WIND PRES WAVE SWELL AIR SEA DIR/SP/G HT/PER HT/PER/DIR (UTC) (F) (DEG/KT/KT) (MB) (FT/S) (FT/S/D) WINYAH BAY 0945 41 360/ 5 1022.0 LAKE MURRAY 1020 38 CALM 1021.7R ACE BASIN NERRS 0945 39 CALM 1021.0 FORT PULASKI 1042 46 61 360/ 5/ 6 1022.0R SAPELO ISLAND 1000 44 360/ 6 1021.0 $$ ANZ835-935-AMZ111-154-330-350-352-354-370-450-454-472-201200- ...C-MAN AND BUOY OBSERVATIONS... STATION/POSITION TIME TEMP WIND PRES WAVE SWELL AIR SEA DIR/SP/G HT/PER HT/PER/DIR (UTC) (F) (DEG/KT/KT) (MB) (FT/S) (FT/S/D) BUOY 41004 1050 57 73 20/ 16/ 21 1021.2R 4/ 5 BUOY 41008 1050 60 67 60/ 14/ 17 1020.5R 3/ 5 FOLLY BEACH CMAN 1000 48 10/ 14/ 16 1022.2R CAPERS NEARSHORE 1008 49 62 30/ 17/ 23 1021.3R FRIPP NEARSHORE 1008 50 62 20/ 10/ 19 1021.1R STATION/POSITION TIME TEMP WIND PRES WAVE SWELL AIR SEA DIR/SP/G HT/PER HT/PER/DIR (UTC) (F) (DEG/KT/KT) (MB) (FT/S) (FT/S/D) 5E ST. MARYS GA 1100 67 N/A 4/ 5 FRYING PAN BUOY 1050 53 70 10/ 17/ 23 1021.4R 4/ 5 BUOY 41025 1050 50 66 330/ 17/ 21 1020.2R 5/ 4 2/ 80/12 CAPE LOOKOUT NC 1000 340/ 14/ 17 1020.7R BUOY 41002 1050 66 76 360/ 19/ 23 1018.0R 7/ 8 2/140/12 BUOY 41010 NOT AVBL ST AUGUSTINE FL 1100 61 67 20/ 19/ 21 1020.0R $$

USA.gov is the U.S. government's official web portal to all federal, state and local government web resources and services.